Regional Weather Roundup
Issued by NWS

Home | Current Version | Previous Version | Graphics & Text | Print | Product List | Glossary On
Versions: 1 2 3 4 5 6 7 8 9 10 11 12 13 14 15 16 17 18 19 20 21 22 23 24 25 26 27 28 29 30 31 32 33 34 35 36 37 38 39 40 41 42 43 44 45 46 47 48 49 50
000
ASUS43 KDTX 271901
RWRMI
MICHIGAN HOURLY REGIONAL WEATHER ROUNDUP
NATIONAL WEATHER SERVICE DETROIT/PONTIAC MI
300 PM EDT MON JUL 27 2015

NOTE: "FAIR" INDICATES FEW OR NO CLOUDS BELOW 12,000 FEET WITH NO
SIGNIFICANT WEATHER AND/OR OBSTRUCTION TO VISIBILITY.

MIZ047>049-052>055-059>063-066>070-074>076-081>083-272000-
SOUTHEAST LOWER MICHIGAN

CITY           SKY/WX    TMP DP  RH WIND       PRES   REMARKS
ADRIAN         MOSUNNY   86  61  42 E10       30.04F
ALMA           SUNNY     87  61  41 E7        30.05F
ANN ARBOR      SUNNY     87  61  41 SE7       30.04F
BAD AXE        PTSUNNY   86  60  41 CALM      30.05S
CARO           MOSUNNY   89  64  42 SW6       30.04S HX  90
DETROIT CITY   SUNNY     86  61  42 SE8       30.04F
DETROIT        PTSUNNY   87  61  41 CALM      30.04F
FLINT          SUNNY     88  60  38 VRB5      30.04F
GROSSE ILE     SUNNY     82  66  57 S7        30.03S
HILLSDALE      MOSUNNY   84  59  42 SE6       30.05F
HOWELL         SUNNY     88  56  33 E6        30.05S

CITY           SKY/WX    TMP DP  RH WIND       PRES   REMARKS
JACKSON        SUNNY     86  58  38 E10       30.04F
LAMBERTVILLE   MOSUNNY   85  63  48 E8        30.03F
LANSING        SUNNY     87  63  44 E12       30.04F
LAPEER         FAIR      86  58  37 CALM      30.05
MASON          SUNNY     84  59  43 E6        30.05F
MONROE         SUNNY     84  64  49 E6        30.03S
MT. CLEMENS    MOSUNNY   86  59  40 E7        30.03F
PONTIAC        MOSUNNY   87  57  35 W5        30.04F
PORT HOPE        N/A     79  67  66 SE6       30.03S
PORT HURON     SUNNY     86  57  37 CALM      30.04S
TRI CITIES     SUNNY     88  63  43 VRB3      30.04F
MIDLAND        FAIR      87  60  39 CALM      30.02F
TROY           SUNNY     90  55  30 S5        30.05F
SAGINAW HB     SUNNY     88  59  37 S5        30.03F
$$
MIZ043>046-050>051-056>058-064>065-071>073-077>080-272000-
SOUTHWEST LOWER MICHIGAN

CITY           SKY/WX    TMP DP  RH WIND       PRES   REMARKS
BATTLE CREEK   SUNNY     87  63  44 E8        30.04F
BENTON HARBOR  MOSUNNY   87  61  41 VRB3      30.01F
BIG RAPIDS     MOSUNNY   87  52  30 E3        30.04S
COLDWATER      SUNNY     82  62  50 SE6       30.03F
FREMONT        FAIR      87  51  28 S3        30.03F
HOLLAND        SUNNY     88  60  38 SE9       30.03F
GRAND RAPIDS   MOSUNNY   87  62  43 E8        30.03F
IONIA          FAIR      86  61  43 E8        30.03F
KALAMAZOO      MOSUNNY   87  63  44 E7        30.03F
LUDINGTON      SUNNY     85  63  46 NW8       30.04F
MARSHALL       SUNNY     85  64  48 E7        30.03F
MOUNT PLEASANT SUNNY     88  58  36 SW6       30.03F
MUSKEGON       MOSUNNY   90  56  31 S9        30.03S
SOUTH HAVEN    MOSUNNY   86  56  36 SE3       30.02S
$$
MIZ016>042-272000-
NORTHERN LOWER MICHIGAN

CITY           SKY/WX    TMP DP  RH WIND       PRES   REMARKS
ALPENA         PTSUNNY   89  62  40 N6        30.02F
BEAVER ISLAND  SUNNY     82  64  54 SW9       30.04R
BELLAIRE       SUNNY     88  56  33 W6        30.03S
CADILLAC       MOSUNNY   87  58  37 SW3       30.05S
CHARLEVOIX     SUNNY     83  64  51 W8        30.06F
FRANKFORT      SUNNY     88  60  39 W8        30.04S
GAYLORD        MOSUNNY   87  55  33 CALM      30.05F
GRAYLING       MOSUNNY   88  59  37 N5        30.05F
HARBOR SPRINGS SUNNY     79  65  62 SW9       30.03S
HOUGHTON LAKE  SUNNY     88  53  30 S7        30.05F
MANISTEE       SUNNY     84  61  45 NW13      30.04S
OSCODA         SUNNY     88  53  30 E13G23    30.02S
ROGERS CITY    SUNNY     81  64  56 NE6       30.04S
TRAVERSE CITY  MOSUNNY   90  62  39 NE9       30.01F HX  90
$$
MIZ007>008-015-272000-
EASTERN UPPER MICHIGAN

CITY           SKY/WX    TMP DP  RH WIND       PRES   REMARKS
KINROSS        SUNNY     88  55  33 NW6G16    30.01F
MACKINAC ISLAN   N/A     82  62  51 SW6       30.03R
$$
MIZ004>006-011>014-085-272000-
CENTRAL UPPER MICHIGAN

CITY           SKY/WX    TMP DP  RH WIND       PRES   REMARKS
ESCANABA       SUNNY     84  63  48 S10       30.00S
MENOMINEE      SUNNY     86  61  42 SW8       30.02S
SAWYER-GWINN   PTSUNNY   82  68  61 N17       30.04S
$$
MIZ001>003-009>011-084-272000-
WESTERN UPPER MICHIGAN

CITY           SKY/WX    TMP DP  RH WIND       PRES   REMARKS
IRON MOUNTAIN  SUNNY     89  59  36 S9        30.03S
HOUGHTON       SUNNY     88  66  48 VRB6      30.00F HX  90
COPPER HARBOR    N/A     70  60  70 CALM      29.99F
IRONWOOD       SUNNY     86  55  35 S9        29.98F
$$

ABBREVIATIONS USED IN REMARKS
   TC - TEMPERATURE IN CELSIUS
  WCI - WIND CHILL INDEX
   HX - HEAT INDEX
  VSB - VISIBILITY




USA.gov is the U.S. government's official web portal to all federal, state and local government web resources and services.